Regional Weather Roundup
Issued by NWS

Home | Current Version | Previous Version | Graphics & Text | Print | Product List | Glossary On
Versions: 1 2 3 4 5 6 7 8 9 10 11 12 13 14 15 16 17 18 19 20 21 22 23 24 25 26 27 28 29 30 31 32 33 34 35 36 37 38 39 40 41 42 43 44 45 46 47 48 49 50
000
ASUS43 KLMK 272102
RWRKY
KENTUCKY REGIONAL WEATHER ROUNDUP
NATIONAL WEATHER SERVICE LOUISVILLE KY
500 PM EDT WED MAY 27 2015

NOTE "FAIR" INDICATES FEW OR NO CLOUDS BELOW 12,000 FEET
WITH NO SIGNIFICANT WEATHER AND/OR OBSTRUCTIONS TO VISIBILITY.

KYZ001>023-026-027-061>063-070>075-272200-
WESTERN AND SOUTH CENTRAL KENTUCKY

CITY           SKY/WX    TMP DP  RH WIND       PRES   REMARKS
PADUCAH        CLOUDY    76  65  68 SW14      30.09F
HENDERSON      CLOUDY    79  63  57 SW14      30.07F
OWENSBORO      CLOUDY    76  65  68 SW12G21   30.10R
HOPKINSVILLE   CLOUDY    72  65  79 SE7       30.11F
BOWLING GREEN  CLOUDY    74  64  71 S10       30.12F
GLASGOW        NOT AVBL
$$

KYZ024-025-028>034-038-045-046-053-272200-
NORTH CENTRAL KENTUCKY

CITY           SKY/WX    TMP DP  RH WIND       PRES   REMARKS
LOUISVILLE/SDF CLOUDY    71  63  75 S12       30.10S
LOUISVILLE/LOU CLOUDY    70  63  78 S7        30.10F
FORT KNOX      PTSUNNY   67  64  87 S13       30.11S
$$

KYZ035>037-039>044-047>052-055>060-089>105-272200-
NORTHEAST KENTUCKY

CITY           SKY/WX    TMP DP  RH WIND       PRES   REMARKS
LEXINGTON      RAIN      64  61  90 SE12      30.15F FOG
COVINGTON      CLOUDY    81  65  58 S14G21    30.07F
FRANKFORT      CLOUDY    66  62  87 S6        30.11F
$$

KYZ054-064>069-076>088-106>120-272200-
SOUTHEAST KENTUCKY

CITY           SKY/WX    TMP DP  RH WIND       PRES   REMARKS
JACKSON        MOSUNNY   80  62  54 CALM      30.18F
LONDON         MOSUNNY   83  57  41 W12       30.18S
SOMERSET       NOT AVBL
MIDDLESBORO    MOSUNNY   81  62  51 S8        30.18F
MONTICELLO     MOCLDY    80  65  60 SW6       30.20R
$$



USA.gov is the U.S. government's official web portal to all federal, state and local government web resources and services.